User: anonymous
Location: Columbia
(38.9520°N, 92.3340°W)
Time: 12:40:38
(UTC-05:00)
Language:

SL-08 RB Rocket - Orbit

View from above orbital plane
View from above orbital plane
View from above satellite
View from above satellite

Ground track
Ground track

The orbit data is extracted from the following two-line orbital elements,

1 26387U 00033D   14234.30079653  .00000291  00000-0  59990-4 0  5847
2 26387 098.1006 301.2729 0026629 007.1236 034.5402 14.67342394756784
Epoch (UTC): 22 August 2014 07:13:08
Eccentricity: 0.0026629
inclination: 98.1006°
perigee height: 651 km
apogee height: 688 km
right ascension of ascending node: 301.2729°
argument of perigee: 7.1236°
revolutions per day: 14.67342394
mean anomaly at epoch: 34.5402°
orbit number at epoch: 75678

The dashed part of the orbit path shows where the satellite is in the earth's shadow,  

DLR